043  
ASUS45 KBOI 210310  
RWRID  
 
IDAHO REGIONAL WEATHER ROUNDUP  
NATIONAL WEATHER SERVICE BOISE ID  
800 PM MST MON NOV 20 2017  
 
NOTE: "FAIR" INDICATES FEW OR NO CLOUDS BELOW 12000 FEET  
WITH NO SIGNIFICANT WEATHER AND/OR S TO VISIBILITY
 
 
IDZ012-014-210400-  
SOUTHWEST IDAHO  
 
 
CITY SKY/WX TMP DP RH WIND PRES REMARKS
 
BOISE CLOUDY 47 42 83 SE14 29.99R  
CALDWELL CLOUDY 49 43 80 NE9 30.00R  
MOUNTAIN HOME LGT RAIN 42 42 100 E13 30.03R  

 
 
IDZ016-017-210400-  
SOUTHCENTRAL IDAHO  
 
 
CITY SKY/WX TMP DP RH WIND PRES REMARKS
 
BURLEY CLOUDY 46 40 79 SW6 30.03S  
JEROME LGT RAIN 44 41 89 CALM 30.04R  
TWIN FALLS CLOUDY 47 43 86 SW7 30.04R  

 
 
IDZ019>023-210400-  
SOUTHEAST IDAHO  
 
 
CITY SKY/WX TMP DP RH WIND PRES REMARKS
 
IDAHO FALLS CLOUDY 40 35 83 S10 30.01S WCI 33  
POCATELLO CLOUDY 47 37 68 S18G24 30.03F  
REXBURG CLOUDY 38 35 89 SW9 30.01R WCI 31  

 
 
IDZ006-010-011-018-031-032-210400-  
CENTRAL IDAHO MOUNTAINS  
 
 
CITY SKY/WX TMP DP RH WIND PRES REMARKS
 
MCCALL LGT RAIN 37 36 96 CALM 29.97R  
HAILEY LGT RAIN 34 34 100 CALM 30.04S  
STANLEY N/A 39 36 89 MISG 29.99R  
SALMON LGT RAIN 35 33 92 CALM 29.92R  
CHALLIS CLOUDY 41 35 79 N5 29.92R  

 
 
IDZ002-004-006-007-026-210400-  
NORTHERN IDAHO  
 
 
CITY SKY/WX TMP DP RH WIND PRES REMARKS
 
LEWISTON CLEAR 44 41 89 CALM 29.94R  
LOWELL N/A 39 39 100 CALM 30.00R  
COEUR D'ALENE CLOUDY 42 39 89 SW8 29.89R  
MULLAN PASS CLOUDY 31 29 92 W10G17 29.85R WCI 22  

 
 
 
CLICK HERE TO GO TO PREVIOUS BULLETINS.

The Nexlab ID Page Main Text Page